Cloud_Cover
100 5 30 97 99 62 5 3 0 0 0 0 0 0 0 0 0 0 0 0 0 0 0 0 0 0 0 5 5 10 96 14 5
20 6 71 100 36 15 12 7 2 0 0 0 0 0 3 0 0 0 0 0 7 0 0 0 0 2 5 5 5 97 82 37 5
100 74 36 99 67 9 5 5 8 8 0 0 0 0 0 5 1 0 0 0 4 1 5 4 3 5 12 6 70 57 53 66 5
100 100 98 100 97 8 5 5 4 2 1 0 0 0 5 5 0 0 0 0 35 100 53 100 100 98 91 85 90 64 98 12 5
100 100 99 100 17 5 5 5 5 5 4 2 0 0 0 0 0 0 5 5 51 28 5 5 5 100 100 100 91 5 25 5 5
17 5 64 25 7 6 11 5 5 5 5 4 5 5 5 5 5 5 5 5 9 85 5 5 68 97 100 100 92 15 5 5 5
63 77 81 40 83 21 5 5 5 5 4 4 0 1 5 5 5 5 5 5 15 5 5 89 100 97 100 97 30 7 5 85 74
100 100 100 100 100 42 5 5 5 5 5 2 5 10 5 28 7 49 5 5 5 5 34 100 40 91 65 41 15 5 7 16 13
99 100 34 74 100 23 14 10 8 48 21 5 5 5 71 95 30 5 16 56 5 33 24 99 100 90 51 15 18 9 5 7 20
100 14 99 100 99 100 100 100 84 37 10 35 14 5 5 12 79 100 100 81 54 73 100 94 100 78 90 96 79 5 5 5 1
100 96 91 100 78 99 73 53 91 100 100 99 5 5 5 54 100 100 6 5 64 94 99 92 26 43 50 98 7 72 5 21 0
89 99 100 75 77 100 100 100 100 100 100 100 78 12 98 86 14 97 60 99 30 94 80 28 6 5 5 49 96 20 5 4 2
100 100 94 81 69 97 99 100 100 100 100 100 48 50 6 8 96 27 6 5 5 32 74 87 66 46 13 98 68 59 8 79 34
100 100 89 100 80 5 47 100 100 100 63 98 100 100 42 100 34 7 5 3 5 7 63 15 36 12 65 89 39 10 0 6 42
100 100 99 100 73 90 46 90 100 91 98 97 99 96 98 4 9 43 79 5 64 25 42 5 6 5 5 5 1 3 0 73 28
100 100 99 100 100 90 64 100 70 6 8 5 95 91 71 5 4 79 5 5 90 99 5 5 5 5 5 5 1 1 4 5 8
100 100 100 100 100 100 100 96 96 56 51 20 44 74 6 27 6 1 0 6 29 5 5 4 21 4 7 20 11 57 88 100 87
100 100 100 100 100 100 100 66 82 69 68 97 18 76 8 4 4 2 0 3 5 5 5 5 5 5 2 0 59 100 100 98 8
100 100 100 100 100 100 100 100 100 95 100 100 96 27 9 5 5 19 8 5 5 10 70 27 5 5 5 5 6 90 95 100 58
100 100 100 100 100 100 100 100 100 100 100 100 100 100 87 100 100 100 100 100 58 65 19 5 5 12 8 5 5 12 100 38 100